Flag for U.S.A. Weather past 2 weeks in Columbia, South Carolina, U.S.A.

Now
48 °F

Fog.


Feels Like: 48 °F
Forecast: 44 / 80 °F
Wind: No wind

Location: Columbia Owens Downtown Airport

Current Time: Mar 4, 2015 at 7:21:32 AM

Latest Report: Mar 4, 2015 at 6:53 AM


Visibility: 0 mi

Pressure: 30.07 "Hg

Humidity: 93%

Dew point: 46 °F

Location of ColumbiaLocation

Historic Weather in Columbia — Graph

°F

Columbia temperature yesterday

Maximum temperature yesterday: 59 °F (at 12:53 AM)
Minimum temperature yesterday: 44 °F (at 3:53 PM)
Average temperature yesterday: 49 °F

Past Weeks' High & Low Weather Summary

 TemperatureHumidityPressure
High72 °F (Mar 2, 2:53 PM)97% (Feb 22, 10:53 PM)30.69 "Hg (Feb 22, 10:53 PM)
Low16 °F (Feb 20, 4:53 AM)20% (Feb 20, 3:53 PM)29.63 "Hg (Feb 26, 1:53 AM)
Average42 °F69%30.21 "Hg
* Reported Feb 17 5:53 AM — Mar 4 5:53 AM, Columbia, Weather by CustomWeather, © 2015

Note: Actual official high and low records may vary slightly from our data, if they occured in-between our weather recording intervals... More about our weather records

Advertising

Columbia weather history for previous 24 hours

 ConditionsComfort  
Time TempWeatherWind HumidityBarometerVisibility
5:53 AM
Wed, Mar 4
47 °FFog.No wind93%30.07 "Hg0 mi
4:53 AM46 °FFog.No wind96%30.07 "Hg0 mi
3:53 AM46 °FFog.No wind93%30.07 "Hg0 mi
2:53 AM45 °FFog.No wind97%30.09 "Hg0 mi
1:53 AM45 °FFog.No wind93%30.09 "Hg0 mi
12:53 AM44 °FFog.No wind96%30.11 "Hg0 mi
12:01 AM44 °FFog.No wind93%30.13 "Hg2 mi
11:53 PM
Tue, Mar 3
44 °FFog.No wind93%30.14 "Hg4 mi
10:53 PM45 °FLow clouds.No wind86%30.16 "Hg8 mi
9:53 PM45 °FFog.No wind90%30.17 "Hg6 mi
8:53 PM44 °FFog.No wind89%30.17 "Hg5 mi
7:53 PM44 °FLow clouds.No wind93%30.19 "Hg7 mi
6:53 PM44 °FLow clouds.No wind89%30.19 "Hg7 mi
5:53 PM44 °FLow clouds.3 mph89%30.19 "Hg7 mi
4:53 PM44 °FLow clouds.3 mph89%30.20 "Hg7 mi
3:53 PM44 °FFog.3 mph89%30.22 "Hg5 mi
2:53 PM45 °FFog.No wind90%30.22 "Hg2 mi
1:53 PM45 °FFog.5 mph90%30.24 "Hg4 mi
12:53 PM45 °FFog.5 mph90%30.28 "Hg1 mi
11:53 AM46 °FFog.3 mph89%30.31 "Hg2 mi
10:53 AM48 °FFog.5 mph89%30.31 "Hg1 mi
9:53 AM48 °FFog.7 mph89%30.31 "Hg3 mi
8:53 AM50 °FFog.8 mph89%30.31 "Hg3 mi
7:53 AM52 °FFog.6 mph89%30.28 "Hg2 mi
Weather by CustomWeather, © 2015

See weather overviewHow to use our weather pages